Location: Boda
(47.1872°N, 9.5454°E)
Time: 09:43:10
(UTC+00:00)

MSX - Pass Details

Date: 14 May 2021
Orbit: 895 x 905 km, 98.8° (Epoch: 16 June)

Event Time Altitude Azimuth Distance (km) Brightness Sun altitude
Rises 02:12:30 0° 16° (NNE) 3,541 8.2 -13.4°
Reaches altitude 10° 02:14:57 10° 20° (NNE) 2,597 7.4 -13.1°
Maximum altitude 02:20:43 65° 102° (ESE) 993 4.2 -12.4°
Drops below altitude 10° 02:26:26 10° 184° (S) 2,580 5.8 -11.8°
Enters shadow 02:27:12 - 185° (S) 2,873 6.0 -11.7°
